• In Uzbekistan
  • List of Countries
  • For 7 days
  • Water Temperature
  • Satellite Maps
  • Weather Map
  • Weather Widgets
  • user-avatar
    Login

    Hourly Weather Satif

    Today, 19 January, Thursday

    Time Temperature Precipitation Wind Pressure Humidity
    00:00 -1°C° 0 mm 1 mps 669 mmHg 85%
    01:00 -1°C° 0 mm 1 mps 668 mmHg 85%
    02:00 -2°C° 0 mm 1 mps 668 mmHg 84%
    03:00 -2°C° 0 mm 1 mps 668 mmHg 83%
    04:00 -2°C° 0.1 mm 1 mps 668 mmHg 81%
    05:00 -1°C° 0.1 mm 1 mps 669 mmHg 79%
    06:00 -1°C° 0.1 mm 1 mps 669 mmHg 77%
    07:00 +1°C° 0 mm 1 mps 669 mmHg 74%
    08:00 +2°C° 0 mm 1 mps 670 mmHg 70%
    09:00 +3°C° 0 mm 2 mps 671 mmHg 66%
    10:00 +4°C° 0 mm 2 mps 671 mmHg 64%
    11:00 +5°C° 0 mm 2 mps 671 mmHg 62%
    12:00 +6°C° 0 mm 2 mps 671 mmHg 59%
    13:00 +6°C° 0 mm 2 mps 671 mmHg 60%
    14:00 +6°C° 0 mm 2 mps 670 mmHg 61%
    15:00 +6°C° 0 mm 2 mps 670 mmHg 61%
    16:00 +4°C° 0 mm 2 mps 670 mmHg 66%
    17:00 +3°C° 0 mm 1 mps 670 mmHg 71%
    18:00 +1°C° 0 mm 1 mps 669 mmHg 76%
    19:00 +1°C° 0 mm 1 mps 669 mmHg 78%
    20:00 +1°C° 0 mm 1 mps 669 mmHg 79%
    21:00 0°C° 0 mm 1 mps 670 mmHg 80%
    22:00 0°C° 0 mm 1 mps 669 mmHg 80%
    23:00 0°C° 0 mm 1 mps 669 mmHg 79%

    Tomorrow, 20 January, Friday

    Time Temperature Precipitation Wind Pressure Humidity
    00:00 0°C° 0 mm 1 mps 669 mmHg 79%
    01:00 0°C° 0 mm 1 mps 669 mmHg 79%
    02:00 0°C° 0 mm 1 mps 669 mmHg 78%
    03:00 0°C° 0 mm 1 mps 669 mmHg 78%
    04:00 0°C° 0 mm 1 mps 669 mmHg 77%
    05:00 0°C° 0 mm 1 mps 668 mmHg 76%
    06:00 0°C° 0 mm 1 mps 668 mmHg 75%
    07:00 +1°C° 0 mm 1 mps 669 mmHg 71%
    08:00 +3°C° 0 mm 1 mps 669 mmHg 67%
    09:00 +4°C° 0 mm 2 mps 670 mmHg 63%
    10:00 +5°C° 0 mm 2 mps 669 mmHg 60%
    11:00 +6°C° 0 mm 2 mps 669 mmHg 57%
    12:00 +8°C° 0 mm 2 mps 669 mmHg 54%
    13:00 +7°C° 0.1 mm 3 mps 668 mmHg 58%
    14:00 +7°C° 0.1 mm 3 mps 668 mmHg 63%
    15:00 +7°C° 0.1 mm 3 mps 667 mmHg 67%
    16:00 +5°C° 0.5 mm 3 mps 667 mmHg 74%
    17:00 +3°C° 0.5 mm 3 mps 667 mmHg 82%
    18:00 +2°C° 0.5 mm 3 mps 666 mmHg 90%
    19:00 +2°C° 0.4 mm 3 mps 666 mmHg 92%
    20:00 +3°C° 0.4 mm 2 mps 666 mmHg 93%
    21:00 +3°C° 0.4 mm 2 mps 665 mmHg 95%
    22:00 +2°C° 0.1 mm 2 mps 665 mmHg 94%
    23:00 +2°C° 0.1 mm 2 mps 664 mmHg 94%

    Day after tomorrow, 21 January, Saturday

    Time Temperature Precipitation Wind Pressure Humidity
    00:00 +3°C° 0.1 mm 1 mps 664 mmHg 94%
    01:00 +2°C° 0.1 mm 1 mps 663 mmHg 94%
    02:00 +2°C° 0.1 mm 1 mps 663 mmHg 94%
    03:00 +2°C° 0.1 mm 1 mps 663 mmHg 94%
    04:00 +1°C° 0.2 mm 1 mps 662 mmHg 94%
    05:00 +1°C° 0.2 mm 1 mps 662 mmHg 94%
    06:00 0°C° 0.2 mm 1 mps 662 mmHg 95%
    07:00 +2°C° 0 mm 1 mps 662 mmHg 90%
    08:00 +3°C° 0 mm 1 mps 663 mmHg 85%
    09:00 +4°C° 0 mm 1 mps 663 mmHg 80%
    10:00 +4°C° 0 mm 2 mps 664 mmHg 76%
    11:00 +5°C° 0 mm 2 mps 664 mmHg 71%
    12:00 +6°C° 0 mm 2 mps 664 mmHg 67%
    13:00 +5°C° 0.2 mm 3 mps 663 mmHg 68%
    14:00 +4°C° 0.2 mm 3 mps 663 mmHg 70%
    15:00 +4°C° 0.2 mm 3 mps 663 mmHg 72%
    16:00 +4°C° 0.1 mm 2 mps 663 mmHg 78%
    17:00 +2°C° 0.1 mm 2 mps 662 mmHg 83%
    18:00 +1°C° 0.1 mm 2 mps 662 mmHg 89%
    19:00 +1°C° 0.1 mm 2 mps 663 mmHg 90%
    20:00 +1°C° 0.1 mm 2 mps 663 mmHg 91%
    21:00 +1°C° 0.1 mm 2 mps 663 mmHg 92%
    22:00 +1°C° 0.1 mm 2 mps 663 mmHg 92%
    23:00 +1°C° 0.1 mm 2 mps 663 mmHg 93%

    22 January, Sunday

    Time Temperature Precipitation Wind Pressure Humidity
    00:00 +1°C° 0.1 mm 2 mps 663 mmHg 94%
    01:00 +1°C° 0 mm 2 mps 663 mmHg 94%
    02:00 -1°C° 0 mm 2 mps 663 mmHg 95%
    03:00 -1°C° 0 mm 2 mps 663 mmHg 95%
    04:00 -1°C° 0 mm 2 mps 663 mmHg 95%
    05:00 -1°C° 0 mm 2 mps 663 mmHg 95%
    06:00 -1°C° 0 mm 2 mps 664 mmHg 95%
    07:00 0°C° 0.3 mm 3 mps 664 mmHg 92%
    08:00 +1°C° 0.3 mm 3 mps 665 mmHg 88%
    09:00 +2°C° 0.3 mm 3 mps 665 mmHg 85%
    10:00 +3°C° 0.2 mm 3 mps 666 mmHg 83%
    11:00 +3°C° 0.2 mm 3 mps 666 mmHg 81%
    12:00 +4°C° 0.2 mm 3 mps 666 mmHg 79%
    13:00 +4°C° 0.1 mm 3 mps 666 mmHg 78%
    14:00 +4°C° 0.1 mm 3 mps 666 mmHg 78%
    15:00 +4°C° 0.1 mm 3 mps 666 mmHg 77%
    16:00 +3°C° 0 mm 3 mps 666 mmHg 83%
    17:00 +3°C° 0 mm 2 mps 667 mmHg 88%
    18:00 +2°C° 0 mm 2 mps 667 mmHg 93%
    19:00 +2°C° 0 mm 2 mps 667 mmHg 94%
    20:00 +2°C° 0 mm 2 mps 668 mmHg 94%
    21:00 +1°C° 0 mm 2 mps 668 mmHg 94%
    22:00 +1°C° 0 mm 2 mps 668 mmHg 95%
    23:00 +1°C° 0 mm 2 mps 668 mmHg 95%

    23 January, Monday

    Time Temperature Precipitation Wind Pressure Humidity
    00:00 -1°C° 0 mm 2 mps 668 mmHg 96%
    01:00 -1°C° 0 mm 2 mps 668 mmHg 96%
    02:00 -1°C° 0 mm 2 mps 668 mmHg 97%
    03:00 -1°C° 0 mm 2 mps 668 mmHg 97%
    04:00 -1°C° 0 mm 2 mps 668 mmHg 97%
    05:00 -1°C° 0 mm 2 mps 668 mmHg 97%
    06:00 -1°C° 0 mm 2 mps 668 mmHg 96%
    07:00 +1°C° 0.1 mm 2 mps 669 mmHg 92%
    08:00 +3°C° 0.1 mm 2 mps 669 mmHg 88%
    09:00 +4°C° 0.1 mm 2 mps 670 mmHg 84%
    10:00 +4°C° 0.2 mm 3 mps 670 mmHg 80%
    11:00 +5°C° 0.2 mm 3 mps 670 mmHg 76%
    12:00 +6°C° 0.2 mm 4 mps 670 mmHg 73%
    13:00 +5°C° 0.3 mm 4 mps 670 mmHg 74%
    14:00 +5°C° 0.3 mm 4 mps 669 mmHg 75%
    15:00 +5°C° 0.3 mm 4 mps 669 mmHg 76%
    16:00 +4°C° 0.3 mm 3 mps 669 mmHg 82%
    17:00 +2°C° 0.3 mm 3 mps 669 mmHg 87%
    18:00 +2°C° 0.3 mm 2 mps 670 mmHg 93%
    19:00 +2°C° 0.4 mm 2 mps 670 mmHg 94%
    20:00 +2°C° 0.4 mm 2 mps 670 mmHg 94%
    21:00 +2°C° 0.4 mm 2 mps 670 mmHg 95%
    22:00 +2°C° 0.5 mm 2 mps 670 mmHg 95%
    23:00 +1°C° 0.5 mm 3 mps 670 mmHg 95%

    24 January, Tuesday

    Time Temperature Precipitation Wind Pressure Humidity
    00:00 +1°C° 0.5 mm 3 mps 670 mmHg 96%
    01:00 +1°C° 0.2 mm 3 mps 670 mmHg 96%
    02:00 +1°C° 0.2 mm 3 mps 670 mmHg 96%
    03:00 +1°C° 0.2 mm 3 mps 670 mmHg 96%
    04:00 +1°C° 0.1 mm 3 mps 670 mmHg 95%
    05:00 0°C° 0.1 mm 3 mps 670 mmHg 95%
    06:00 0°C° 0.1 mm 3 mps 671 mmHg 95%
    07:00 +1°C° 0.2 mm 3 mps 671 mmHg 90%
    08:00 +1°C° 0.2 mm 4 mps 672 mmHg 86%
    09:00 +3°C° 0.2 mm 4 mps 672 mmHg 81%
    10:00 +3°C° 0.2 mm 4 mps 672 mmHg 79%
    11:00 +4°C° 0.2 mm 4 mps 672 mmHg 76%
    12:00 +3°C° 0.2 mm 5 mps 672 mmHg 74%
    13:00 +4°C° 0.2 mm 4 mps 672 mmHg 75%
    14:00 +4°C° 0.2 mm 4 mps 672 mmHg 76%
    15:00 +4°C° 0.2 mm 4 mps 672 mmHg 77%
    16:00 +3°C° 0.1 mm 3 mps 672 mmHg 82%
    17:00 +2°C° 0.1 mm 3 mps 673 mmHg 87%
    18:00 +2°C° 0.1 mm 2 mps 673 mmHg 92%
    19:00 +2°C° 0 mm 2 mps 673 mmHg 93%
    20:00 +1°C° 0 mm 2 mps 673 mmHg 94%
    21:00 +1°C° 0 mm 2 mps 673 mmHg 95%
    22:00 +1°C° 0 mm 2 mps 673 mmHg 95%
    23:00 +1°C° 0 mm 2 mps 673 mmHg 94%
    Show more